Temp
63 61 62 61 61 61 61 61 62 62 62 62 63 62 61 59 60 60 60 60 59 59
63 62 61 62 62 61 61 63 62 62 62 62 63 62 61 60 61 61 60 60 59 60
62 63 63 63 62 62 62 63 62 62 62 62 62 62 61 60 62 61 59 60 60 60
63 64 62 62 62 62 62 62 62 63 63 63 63 62 61 61 61 61 60 60 60 60
63 62 62 62 63 62 62 62 64 63 64 63 64 62 62 62 62 61 62 61 61 60
62 62 62 62 62 62 63 63 63 64 63 64 63 63 62 63 62 62 62 62 61 60
61 61 61 62 62 63 64 65 67 65 66 65 64 63 63 63 61 62 63 63 62 61
62 62 62 62 63 63 63 65 67 65 63 61 62 63 62 62 61 61 61 62 62 62
63 63 62 62 62 61 61 61 61 63 60 59 61 50 53 59 60 60 60 60 59 60
64 63 62 62 62 60 59 59 59 58 58 57 55 47 49 52 60 59 59 59 60 61
65 64 62 61 60 59 58 58 58 57 56 56 54 46 48 52 60 59 61 59 61 60
66 63 62 61 59 59 59 58 57 57 55 55 54 46 50 57 61 60 60 61 61 60
66 64 62 60 59 59 59 60 60 58 57 52 57 45 49 57 61 58 58 58 58 51
64 62 62 60 60 59 58 58 59 58 57 55 54 52 47 50 57 57 58 58 57 55
MSLP
1003.92 1004.44 1004.86 1005.25 1005.51 1005.72 1005.96 1006.02 1006.12 1006.32 1006.49 1006.66 1006.88 1007.09 1007.27 1007.48 1007.66 1007.75 1008.00 1008.23 1008.33 1008.44
1003.96 1004.35 1004.75 1004.99 1005.16 1005.52 1005.75 1005.94 1006.15 1006.27 1006.47 1006.60 1006.74 1006.85 1007.07 1007.30 1007.45 1007.50 1007.68 1007.81 1007.92 1008.08
1003.96 1004.12 1004.49 1004.91 1005.36 1005.55 1005.73 1005.88 1006.12 1006.33 1006.52 1006.62 1006.57 1006.68 1006.94 1007.20 1007.28 1007.46 1007.58 1007.60 1007.69 1007.81
1003.96 1004.18 1004.56 1005.08 1005.32 1005.53 1005.74 1005.88 1006.14 1006.32 1006.42 1006.56 1006.69 1006.77 1006.91 1007.09 1007.22 1007.45 1007.63 1007.68 1007.73 1007.84
1003.99 1004.37 1004.82 1005.13 1005.29 1005.48 1005.66 1005.95 1006.08 1006.29 1006.24 1006.46 1006.66 1006.76 1006.76 1007.01 1007.15 1007.38 1007.61 1007.69 1007.71 1007.90
1004.01 1004.48 1004.85 1005.09 1005.26 1005.37 1005.57 1005.89 1006.15 1006.28 1006.29 1006.43 1006.67 1006.80 1006.91 1006.97 1007.10 1007.18 1007.36 1007.53 1007.67 1007.86
1004.03 1004.49 1004.83 1005.03 1005.21 1005.27 1005.46 1005.78 1005.95 1006.11 1006.28 1006.44 1006.72 1006.88 1007.04 1007.11 1007.24 1007.24 1007.30 1007.48 1007.66 1007.95
1004.08 1004.51 1004.77 1005.04 1005.15 1005.25 1005.54 1005.70 1005.88 1006.17 1006.54 1006.90 1007.03 1007.12 1007.23 1007.32 1007.48 1007.56 1007.73 1007.88 1007.89 1008.11
1004.05 1004.53 1004.88 1005.18 1005.36 1005.57 1005.94 1006.13 1006.32 1006.64 1007.06 1007.38 1007.55 1007.63 1007.41 1007.37 1007.73 1007.98 1008.13 1008.22 1008.35 1008.50
1003.98 1004.50 1004.93 1005.23 1005.57 1005.98 1006.29 1006.54 1006.91 1007.14 1007.37 1007.77 1007.98 1007.86 1007.68 1007.56 1007.83 1008.15 1008.38 1008.54 1008.69 1008.85
1003.92 1004.40 1004.98 1005.32 1005.73 1006.21 1006.56 1006.86 1007.18 1007.44 1007.71 1007.95 1008.32 1008.21 1007.93 1007.90 1008.21 1008.45 1008.61 1008.79 1008.91 1009.17
1003.82 1004.41 1004.97 1005.29 1005.82 1006.28 1006.66 1007.08 1007.40 1007.69 1008.02 1008.21 1008.50 1008.35 1008.21 1008.29 1008.50 1008.73 1008.98 1009.08 1009.29 1009.51
1003.71 1004.35 1004.93 1005.26 1005.85 1006.26 1006.69 1007.12 1007.51 1007.93 1008.21 1008.41 1008.53 1008.52 1008.39 1008.54 1008.79 1009.07 1009.34 1009.55 1009.82 1009.92
1003.65 1004.28 1004.78 1005.26 1005.83 1006.32 1006.85 1007.35 1007.69 1008.04 1008.48 1008.76 1008.73 1008.84 1008.77 1008.88 1009.11 1009.35 1009.67 1009.92 1010.23 1010.61
Wind_Speed
8 5 5 5 4 4 3 3 3 4 4 4 4 4 4 3 4 5 4 6 5 4
6 7 6 5 4 3 3 3 5 5 4 4 4 5 5 3 4 4 4 5 5 3
6 6 6 5 4 5 4 4 5 4 3 3 4 5 5 3 3 4 2 2 4 2
6 6 6 5 5 5 4 5 5 5 6 5 4 4 4 4 5 5 5 3 5 4
7 6 6 5 5 5 4 3 5 5 5 4 4 4 4 5 4 6 5 4 5 2
7 7 6 5 5 5 5 5 4 5 5 6 4 3 3 4 5 5 5 5 5 4
7 7 6 5 5 5 4 4 5 5 5 5 5 5 5 5 5 5 4 3 5 4
6 6 6 5 5 4 3 4 4 6 6 6 6 3 4 5 5 5 5 4 5 6
7 6 6 5 6 6 6 6 7 6 6 6 3 5 6 5 5 5 5 4 4 4
7 6 6 6 6 6 6 6 6 6 6 6 5 6 6 8 5 5 5 5 4 4
7 7 6 6 7 6 4 6 5 5 6 5 3 5 6 9 6 5 4 5 5 6
7 7 7 7 7 5 5 5 4 4 6 7 2 6 7 7 6 6 5 5 5 7
8 8 7 7 7 4 4 5 6 5 4 6 3 3 9 7 5 6 4 5 5 8
7 8 7 7 4 5 5 6 5 6 4 4 3 3 7 8 4 5 4 4 4 4
Wind_Direction
117 122 130 147 158 164 168 181 177 167 167 187 184 183 173 172 186 193 200 213 209 207
121 126 135 140 137 143 158 155 170 163 162 168 170 166 168 179 193 197 201 215 195 197
142 142 135 126 148 159 163 159 155 159 161 176 169 168 172 173 195 162 148 147 146 126
145 137 127 142 157 161 180 170 163 171 165 179 167 172 168 164 154 131 127 114 111 97
124 129 131 141 152 173 163 174 171 177 156 155 163 172 161 165 166 154 152 148 124 75
131 135 145 158 171 158 146 187 186 178 160 157 163 137 99 144 173 181 175 174 149 153
143 148 164 164 175 148 167 180 193 167 160 134 120 113 129 123 120 136 126 147 158 143
146 144 151 152 138 126 107 153 118 110 81 85 99 111 116 122 138 128 106 97 106 113
138 148 145 132 125 105 109 98 96 102 105 98 84 57 78 134 129 122 118 101 87 105
148 150 153 139 122 118 123 115 110 112 113 109 103 47 46 124 127 124 121 121 107 104
156 144 141 136 131 133 131 125 130 125 122 109 73 52 73 100 109 102 100 112 109 114
152 142 149 139 143 143 134 124 121 129 136 116 86 25 125 113 104 99 81 95 109 122
151 151 155 144 147 144 130 124 127 132 128 130 133 46 142 125 122 109 97 85 98 108
149 152 155 140 132 134 125 118 121 124 135 132 124 76 137 124 109 127 117 114 115 125